Home   Weather   Rostov-on-Don   Past weeks

Flag for Russia Past Weather in Rostov-on-Don, Russia — Yesterday and Last 2 Weeks

Now
34 °F

Passing clouds.


Feels Like: 29 °F
Forecast: 26 / 31 °F
Wind: 6 mph from Southwest

Location: Rostov-Na-Donu

Current Time: Jan 24, 2017 at 6:24:27 pm

Latest Report: Jan 24, 2017 at 5:30 pm


Visibility: 5 mi

Pressure: 30.07 "Hg

Humidity: 70%

Dew Point: 25 °F

Location of Rostov-on-DonLocation

Past Weather in Rostov-on-Don — Graph

°F

Rostov-on-Don Temperature Yesterday

Maximum temperature yesterday: 34 °F (at 12:00 pm)
Minimum temperature yesterday: 25 °F (at 12:00 am)
Average temperature yesterday: 30 °F

High & Low Weather Summary for the Past Weeks

 TemperatureHumidityPressure
High45 °F (Jan 12, 1:30 pm)100% (Jan 11, 10:30 am)30.60 "Hg (Jan 11, 10:30 am)
Low18 °F (Jan 20, 6:00 am)60% (Jan 22, 2:00 pm)29.77 "Hg (Jan 12, 11:30 pm)
Average29 °F86%30.23 "Hg
* Reported Jan 9 5:00 pm — Jan 24 5:00 pm, Rostov-on-Don, Weather by CustomWeather, © 2017

Note: Actual official high and low records may vary slightly from our data, if they occured in-between our weather recording intervals... More about our weather records

Advertising

Rostov-on-Don Weather History for the Previous 24 Hours

Scroll right to see more
 ConditionsComfort  
Time TempWeatherWind HumidityBarometerVisibility
5:00 pm
Tue, Jan 24
36 °FPartly sunny.8 mph65%30.07 "HgN/A
4:30 pm36 °FScattered clouds.8 mph65%30.09 "HgN/A
4:00 pm36 °FScattered clouds.8 mph65%30.09 "HgN/A
3:30 pm36 °FScattered clouds.10 mph65%30.09 "HgN/A
3:00 pm36 °FScattered clouds.13 mph65%30.12 "HgN/A
2:30 pm36 °FPassing clouds.13 mph65%30.12 "HgN/A
2:00 pm36 °FPassing clouds.13 mph65%30.12 "HgN/A
1:30 pm36 °FPassing clouds.13 mph70%30.15 "HgN/A
1:00 pm36 °FPassing clouds.10 mph65%30.15 "HgN/A
12:30 pm36 °FPassing clouds.13 mph65%30.18 "HgN/A
12:00 pm36 °FPassing clouds.10 mph65%30.18 "HgN/A
11:30 am34 °FPassing clouds.10 mph70%30.21 "HgN/A
11:00 am32 °FPassing clouds.10 mph75%30.21 "HgN/A
10:30 am30 °FPassing clouds.8 mph80%30.21 "HgN/A
10:00 am30 °FPassing clouds.8 mph86%30.21 "Hg5 mi
9:30 am28 °FPassing clouds.8 mph86%30.21 "Hg4 mi
9:00 am27 °FPassing clouds.8 mph93%30.21 "Hg4 mi
8:30 am27 °FPassing clouds.6 mph93%30.21 "Hg4 mi
8:00 am27 °FIce fog.6 mph93%30.21 "Hg3 mi
7:30 am27 °FPassing clouds.8 mph93%30.24 "Hg4 mi
7:00 am27 °FClear.6 mph93%30.24 "Hg5 mi
6:30 am28 °FClear.8 mph86%30.24 "Hg5 mi
6:00 am28 °FClear.8 mph86%30.24 "Hg5 mi
5:30 am28 °FClear.8 mph86%30.27 "Hg5 mi
5:00 am28 °FClear.10 mph86%30.27 "Hg5 mi
4:30 am28 °FClear.10 mph86%30.27 "Hg5 mi
4:00 am28 °FClear.13 mph86%30.27 "Hg5 mi
3:30 am28 °FClear.13 mph86%30.27 "Hg5 mi
3:00 am28 °FClear.10 mph86%30.30 "Hg5 mi
2:30 am30 °FClear.13 mph80%30.30 "Hg5 mi
2:00 am28 °FPassing clouds.13 mph93%30.30 "Hg5 mi
1:30 am28 °FPassing clouds.13 mph93%30.30 "Hg5 mi
1:00 am28 °FPassing clouds.13 mph93%30.30 "Hg5 mi
12:30 am28 °FPassing clouds.13 mph93%30.30 "Hg5 mi
12:00 am28 °FPassing clouds.13 mph93%30.33 "Hg5 mi
11:30 pm
Mon, Jan 23
28 °FPassing clouds.10 mph93%30.33 "Hg5 mi
11:00 pm30 °FPassing clouds.10 mph86%30.33 "Hg5 mi
10:30 pm30 °FPassing clouds.13 mph86%30.33 "Hg5 mi
10:00 pm30 °FPassing clouds.13 mph86%30.33 "Hg5 mi
9:30 pm30 °FClear.13 mph86%30.33 "Hg5 mi
9:00 pm30 °FClear.13 mph86%30.33 "Hg5 mi
8:30 pm30 °FClear.13 mph86%30.33 "Hg5 mi
8:00 pm30 °FClear.15 mph86%30.33 "Hg5 mi
7:30 pm30 °FClear.13 mph86%30.33 "Hg5 mi
7:00 pm30 °FClear.15 mph86%30.33 "Hg5 mi
6:30 pm30 °FClear.15 mph86%30.33 "Hg5 mi
6:00 pm30 °FClear.13 mph86%30.33 "Hg5 mi
Weather by CustomWeather, © 2017

See weather overviewHow to use our weather pages